Location: Unspecified
(51.2667°N, 0.0000°E)
Time: 07:03:37
(UTC+00:00)

nSIGHT-1 - Pass Details

Date: 23 September 2019
Orbit: 336 x 343 km, 51.6° (Epoch: 21 October)

Event Time Altitude Azimuth Distance (km) Brightness Sun altitude
Rises 19:14:23 0° 283° (WNW) 2,160 ? -12.8°
Reaches altitude 10° 19:16:28 10° 276° (W) 1,312 ? -13.1°
Maximum altitude 19:19:14 39° 205° (SSW) 540 ? -13.5°
Enters shadow 19:20:34 23° 151° (SSE) 791 ? -13.7°
